Year,Month,Day,Hour,Minute,Value (Times are PST for temperature in C)
2021,09,27,00,00,13.00
2021,09,27,00,01,13.00
2021,09,27,00,02,13.00
2021,09,27,00,03,13.00
2021,09,27,00,04,13.00
2021,09,27,00,05,13.00
2021,09,27,00,06,13.00
2021,09,27,00,07,12.90
2021,09,27,00,08,12.90
2021,09,27,00,09,12.90
2021,09,27,00,10,12.90
2021,09,27,00,11,12.90
2021,09,27,00,12,12.90
2021,09,27,00,13,12.90
2021,09,27,00,14,12.90
2021,09,27,00,15,12.90
2021,09,27,00,16,12.90
2021,09,27,00,17,12.90
2021,09,27,00,18,12.90
2021,09,27,00,19,12.90
2021,09,27,00,20,12.90
2021,09,27,00,21,12.90
2021,09,27,00,22,12.90
2021,09,27,00,23,12.90
2021,09,27,00,24,12.90
2021,09,27,00,25,12.90
2021,09,27,00,26,12.90
2021,09,27,00,27,12.90
2021,09,27,00,28,12.90
2021,09,27,00,29,12.90
2021,09,27,00,30,12.90
2021,09,27,00,31,12.90
2021,09,27,00,32,12.90
2021,09,27,00,33,12.90
2021,09,27,00,34,12.90
2021,09,27,00,35,12.90
2021,09,27,00,36,12.90
2021,09,27,00,37,12.90
2021,09,27,00,38,12.90
2021,09,27,00,39,13.00
2021,09,27,00,40,13.00
2021,09,27,00,41,13.00
2021,09,27,00,42,13.00
2021,09,27,00,43,13.00
2021,09,27,00,44,13.00
2021,09,27,00,45,13.00
2021,09,27,00,46,13.00
2021,09,27,00,47,13.00
2021,09,27,00,48,13.10
2021,09,27,00,49,13.10
2021,09,27,00,50,13.10
2021,09,27,00,51,13.00
2021,09,27,00,52,13.00
2021,09,27,00,53,13.00
2021,09,27,00,54,13.00
2021,09,27,00,55,12.90
2021,09,27,00,56,12.90
2021,09,27,00,57,12.90
2021,09,27,00,58,12.90
2021,09,27,00,59,12.90
2021,09,27,01,00,12.90
2021,09,27,01,01,12.90
2021,09,27,01,02,12.80
2021,09,27,01,03,12.80
2021,09,27,01,04,12.80
2021,09,27,01,05,12.80
2021,09,27,01,06,12.80
2021,09,27,01,07,12.80
2021,09,27,01,08,12.80
2021,09,27,01,09,12.80
2021,09,27,01,10,12.80
2021,09,27,01,11,12.80
2021,09,27,01,12,12.80
2021,09,27,01,13,12.80
2021,09,27,01,14,12.80
2021,09,27,01,15,12.80
2021,09,27,01,16,12.70
2021,09,27,01,17,12.70
2021,09,27,01,18,12.70
2021,09,27,01,19,12.70
2021,09,27,01,20,12.70
2021,09,27,01,21,12.70
2021,09,27,01,22,12.70
2021,09,27,01,23,12.70
2021,09,27,01,24,12.70
2021,09,27,01,25,12.70
2021,09,27,01,26,12.70
2021,09,27,01,27,12.70
2021,09,27,01,28,12.70
2021,09,27,01,29,12.70
2021,09,27,01,30,12.70
2021,09,27,01,31,12.70
2021,09,27,01,32,12.80
2021,09,27,01,33,12.80
2021,09,27,01,34,12.80
2021,09,27,01,35,12.80
2021,09,27,01,36,12.90
2021,09,27,01,37,12.90
2021,09,27,01,38,12.90
2021,09,27,01,39,12.90
2021,09,27,01,40,12.90
2021,09,27,01,41,12.90
2021,09,27,01,42,12.90
2021,09,27,01,43,12.90
2021,09,27,01,44,12.90
2021,09,27,01,45,12.90
2021,09,27,01,46,12.90
2021,09,27,01,47,12.90
2021,09,27,01,48,12.90
2021,09,27,01,49,12.90
2021,09,27,01,50,12.90
2021,09,27,01,51,13.00
2021,09,27,01,52,13.00
2021,09,27,01,53,13.00
2021,09,27,01,54,13.00
2021,09,27,01,55,13.00
2021,09,27,01,56,13.00
2021,09,27,01,57,13.00
2021,09,27,01,58,13.00
2021,09,27,01,59,13.00
2021,09,27,02,00,13.00
2021,09,27,02,01,13.00
2021,09,27,02,02,13.00
2021,09,27,02,03,13.10
2021,09,27,02,04,13.10
2021,09,27,02,05,13.10
2021,09,27,02,06,13.10
2021,09,27,02,07,13.20
2021,09,27,02,08,13.10
2021,09,27,02,09,13.10
2021,09,27,02,10,13.10
2021,09,27,02,11,13.10
2021,09,27,02,12,13.10
2021,09,27,02,13,13.10
2021,09,27,02,14,13.10
2021,09,27,02,15,13.10
2021,09,27,02,16,13.00
2021,09,27,02,17,12.90
2021,09,27,02,18,12.90
2021,09,27,02,19,12.90
2021,09,27,02,20,13.00
2021,09,27,02,21,13.00
2021,09,27,02,22,13.10
2021,09,27,02,23,13.10
2021,09,27,02,24,13.10
2021,09,27,02,25,13.20
2021,09,27,02,26,13.20
2021,09,27,02,27,13.20
2021,09,27,02,28,13.20
2021,09,27,02,29,13.20
2021,09,27,02,30,13.20
2021,09,27,02,31,13.20
2021,09,27,02,32,13.10
2021,09,27,02,33,13.10
2021,09,27,02,34,13.00
2021,09,27,02,35,12.80
2021,09,27,02,36,12.70
2021,09,27,02,37,12.60
2021,09,27,02,38,12.50
2021,09,27,02,39,12.50
2021,09,27,02,40,12.40
2021,09,27,02,41,12.40
2021,09,27,02,42,12.30
2021,09,27,02,43,12.30
2021,09,27,02,44,12.30
2021,09,27,02,45,12.30
2021,09,27,02,46,12.30
2021,09,27,02,47,12.20
2021,09,27,02,48,12.20
2021,09,27,02,49,12.20
2021,09,27,02,50,12.20
2021,09,27,02,51,12.20
2021,09,27,02,52,12.20
2021,09,27,02,53,12.20
2021,09,27,02,54,12.20
2021,09,27,02,55,12.20
2021,09,27,02,56,12.20
2021,09,27,02,57,12.20
2021,09,27,02,58,12.30
2021,09,27,02,59,12.30
2021,09,27,03,00,12.30
2021,09,27,03,01,12.30
2021,09,27,03,02,12.30
2021,09,27,03,03,12.20
2021,09,27,03,04,12.20
2021,09,27,03,05,12.20
2021,09,27,03,06,12.20
2021,09,27,03,07,12.20
2021,09,27,03,08,12.20
2021,09,27,03,09,12.20
2021,09,27,03,10,12.30
2021,09,27,03,11,12.40
2021,09,27,03,12,12.50
2021,09,27,03,13,12.50
2021,09,27,03,14,12.60
2021,09,27,03,15,12.50
2021,09,27,03,16,12.50
2021,09,27,03,17,12.50
2021,09,27,03,18,12.50
2021,09,27,03,19,12.60
2021,09,27,03,20,12.60
2021,09,27,03,21,12.60
2021,09,27,03,22,12.60
2021,09,27,03,23,12.50
2021,09,27,03,24,12.50
2021,09,27,03,25,12.40
2021,09,27,03,26,12.30
2021,09,27,03,27,12.30
2021,09,27,03,28,12.20
2021,09,27,03,29,12.20
2021,09,27,03,30,12.10
2021,09,27,03,31,12.10
2021,09,27,03,32,12.10
2021,09,27,03,33,12.10
2021,09,27,03,34,12.10
2021,09,27,03,35,12.10
2021,09,27,03,36,12.10
2021,09,27,03,37,12.10
2021,09,27,03,38,12.10
2021,09,27,03,39,12.10
2021,09,27,03,40,12.00
2021,09,27,03,41,11.90
2021,09,27,03,42,11.90
2021,09,27,03,43,11.80
2021,09,27,03,44,11.70
2021,09,27,03,45,11.70
2021,09,27,03,46,11.70
2021,09,27,03,47,11.60
2021,09,27,03,48,11.60
2021,09,27,03,49,11.60
2021,09,27,03,50,11.60
2021,09,27,03,51,11.60
2021,09,27,03,52,11.70
2021,09,27,03,53,11.80
2021,09,27,03,54,11.90
2021,09,27,03,55,12.00
2021,09,27,03,56,12.20
2021,09,27,03,57,12.40
2021,09,27,03,58,12.50
2021,09,27,03,59,12.70
2021,09,27,04,00,12.70
2021,09,27,04,01,12.80
2021,09,27,04,02,12.90
2021,09,27,04,03,13.00
2021,09,27,04,04,13.00
2021,09,27,04,05,13.10
2021,09,27,04,06,13.10
2021,09,27,04,07,13.10
2021,09,27,04,08,13.20
2021,09,27,04,09,13.20
2021,09,27,04,10,13.30
2021,09,27,04,11,13.30
2021,09,27,04,12,13.30
2021,09,27,04,13,13.30
2021,09,27,04,14,13.40
2021,09,27,04,15,13.40
2021,09,27,04,16,13.40
2021,09,27,04,17,13.40
2021,09,27,04,18,13.30
2021,09,27,04,19,13.30
2021,09,27,04,20,13.30
2021,09,27,04,21,13.30
2021,09,27,04,22,13.30
2021,09,27,04,23,13.20
2021,09,27,04,24,13.20
2021,09,27,04,25,13.10
2021,09,27,04,26,13.10
2021,09,27,04,27,13.10
2021,09,27,04,28,13.10
2021,09,27,04,29,13.10
2021,09,27,04,30,13.10
2021,09,27,04,31,13.10
2021,09,27,04,32,13.10
2021,09,27,04,33,13.10
2021,09,27,04,34,13.20
2021,09,27,04,35,13.10
2021,09,27,04,36,13.10
2021,09,27,04,37,13.10
2021,09,27,04,38,13.10
2021,09,27,04,39,13.10
2021,09,27,04,40,13.10
2021,09,27,04,41,13.10
2021,09,27,04,42,13.20
2021,09,27,04,43,13.20
2021,09,27,04,44,13.20
2021,09,27,04,45,13.30
2021,09,27,04,46,13.30
2021,09,27,04,47,13.30
2021,09,27,04,48,13.30
2021,09,27,04,49,13.30
2021,09,27,04,50,13.30
2021,09,27,04,51,13.30
2021,09,27,04,52,13.30
2021,09,27,04,53,13.30
2021,09,27,04,54,13.30
2021,09,27,04,55,13.30
2021,09,27,04,56,13.30
2021,09,27,04,57,13.30
2021,09,27,04,58,13.30
2021,09,27,04,59,13.30
2021,09,27,05,00,13.30
2021,09,27,05,01,13.20
2021,09,27,05,02,13.20
2021,09,27,05,03,13.20
2021,09,27,05,04,13.10
2021,09,27,05,05,13.10
2021,09,27,05,06,13.10
2021,09,27,05,07,13.00
2021,09,27,05,08,13.00
2021,09,27,05,09,12.90
2021,09,27,05,10,12.90
2021,09,27,05,11,12.90
2021,09,27,05,12,12.90
2021,09,27,05,13,12.90
2021,09,27,05,14,12.90
2021,09,27,05,15,13.00
2021,09,27,05,16,13.00
2021,09,27,05,17,13.00
2021,09,27,05,18,13.10
2021,09,27,05,19,13.10
2021,09,27,05,20,13.10
2021,09,27,05,21,13.00
2021,09,27,05,22,12.90
2021,09,27,05,23,12.80
2021,09,27,05,24,12.80
2021,09,27,05,25,12.70
2021,09,27,05,26,12.70
2021,09,27,05,27,12.70
2021,09,27,05,28,12.60
2021,09,27,05,29,12.50
2021,09,27,05,30,12.50
2021,09,27,05,31,12.50
2021,09,27,05,32,12.60
2021,09,27,05,33,12.60
2021,09,27,05,34,12.60
2021,09,27,05,35,12.60
2021,09,27,05,36,12.70
2021,09,27,05,37,12.70
2021,09,27,05,38,12.70
2021,09,27,05,39,12.80
2021,09,27,05,40,12.80
2021,09,27,05,41,12.80
2021,09,27,05,42,12.80
2021,09,27,05,43,12.80
2021,09,27,05,44,12.80
2021,09,27,05,45,12.80
2021,09,27,05,46,12.80
2021,09,27,05,47,12.70
2021,09,27,05,48,12.70
2021,09,27,05,49,12.60
2021,09,27,05,50,12.50
2021,09,27,05,51,12.40
2021,09,27,05,52,12.40
2021,09,27,05,53,12.30
2021,09,27,05,54,12.30
2021,09,27,05,55,12.20
2021,09,27,05,56,12.20
2021,09,27,05,57,12.10
2021,09,27,05,58,12.00
2021,09,27,05,59,12.00
2021,09,27,06,00,11.90
2021,09,27,06,01,11.90
2021,09,27,06,02,11.80
2021,09,27,06,03,11.80
2021,09,27,06,04,11.80
2021,09,27,06,05,11.80
2021,09,27,06,06,11.80
2021,09,27,06,07,11.80
2021,09,27,06,08,11.80
2021,09,27,06,09,11.80
2021,09,27,06,10,11.90
2021,09,27,06,11,12.00
2021,09,27,06,12,12.00
2021,09,27,06,13,12.10
2021,09,27,06,14,12.10
2021,09,27,06,15,12.20
2021,09,27,06,16,12.20
2021,09,27,06,17,12.20
2021,09,27,06,18,12.20
2021,09,27,06,19,12.20
2021,09,27,06,20,12.20
2021,09,27,06,21,12.10
2021,09,27,06,22,12.10
2021,09,27,06,23,12.00
2021,09,27,06,24,11.90
2021,09,27,06,25,11.80
2021,09,27,06,26,11.80
2021,09,27,06,27,11.70
2021,09,27,06,28,11.60
2021,09,27,06,29,11.60
2021,09,27,06,30,11.50
2021,09,27,06,31,11.50
2021,09,27,06,32,11.50
2021,09,27,06,33,11.50
2021,09,27,06,34,11.50
2021,09,27,06,35,11.60
2021,09,27,06,36,11.60
2021,09,27,06,37,11.60
2021,09,27,06,38,11.60
2021,09,27,06,39,11.70
2021,09,27,06,40,11.70
2021,09,27,06,41,11.70
2021,09,27,06,42,11.80
2021,09,27,06,43,12.00
2021,09,27,06,44,12.10
2021,09,27,06,45,12.20
2021,09,27,06,46,12.30
2021,09,27,06,47,12.30
2021,09,27,06,48,12.30
2021,09,27,06,49,12.40
2021,09,27,06,50,12.50
2021,09,27,06,51,12.50
2021,09,27,06,52,12.50
2021,09,27,06,53,12.60
2021,09,27,06,54,12.60
2021,09,27,06,55,12.60
2021,09,27,06,56,12.70
2021,09,27,06,57,12.70
2021,09,27,06,58,12.80
2021,09,27,06,59,12.80
2021,09,27,07,00,12.90
2021,09,27,07,01,12.90
2021,09,27,07,02,12.90
2021,09,27,07,03,12.90
2021,09,27,07,04,12.90
2021,09,27,07,05,12.90
2021,09,27,07,06,12.80
2021,09,27,07,07,12.80
2021,09,27,07,08,12.80
2021,09,27,07,09,12.70
2021,09,27,07,10,12.70
2021,09,27,07,11,12.70
2021,09,27,07,12,12.70
2021,09,27,07,13,12.60
2021,09,27,07,14,12.60
2021,09,27,07,15,12.60
2021,09,27,07,16,12.50
2021,09,27,07,17,12.40
2021,09,27,07,18,12.40
2021,09,27,07,19,12.30
2021,09,27,07,20,12.30
2021,09,27,07,21,12.30
2021,09,27,07,22,12.30
2021,09,27,07,23,12.40
2021,09,27,07,24,12.40
2021,09,27,07,25,12.50
2021,09,27,07,26,12.60
2021,09,27,07,27,12.60
2021,09,27,07,28,12.70
2021,09,27,07,29,12.80
2021,09,27,07,30,12.80
2021,09,27,07,31,12.80
2021,09,27,07,32,12.80
2021,09,27,07,33,12.70
2021,09,27,07,34,12.70
2021,09,27,07,35,12.60
2021,09,27,07,36,12.60
2021,09,27,07,37,12.50
2021,09,27,07,38,12.40
2021,09,27,07,39,12.40
2021,09,27,07,40,12.40
2021,09,27,07,41,12.30
2021,09,27,07,42,12.30
2021,09,27,07,43,12.30
2021,09,27,07,44,12.30
2021,09,27,07,45,12.40
2021,09,27,07,46,12.40
2021,09,27,07,47,12.40
2021,09,27,07,48,12.50
2021,09,27,07,49,12.50
2021,09,27,07,50,12.50
2021,09,27,07,51,12.60
2021,09,27,07,52,12.70
2021,09,27,07,53,12.80
2021,09,27,07,54,12.90
2021,09,27,07,55,13.00
2021,09,27,07,56,13.10
2021,09,27,07,57,13.20
2021,09,27,07,58,13.20
2021,09,27,07,59,13.30
2021,09,27,08,00,13.30
2021,09,27,08,01,13.30
2021,09,27,08,02,13.30
2021,09,27,08,03,13.30
2021,09,27,08,04,13.30
2021,09,27,08,05,13.30
2021,09,27,08,06,13.20
2021,09,27,08,07,13.20
2021,09,27,08,08,13.10
2021,09,27,08,09,13.10
2021,09,27,08,10,13.00
2021,09,27,08,11,12.90
2021,09,27,08,12,12.90
2021,09,27,08,13,12.90
2021,09,27,08,14,12.90
2021,09,27,08,15,12.90
2021,09,27,08,16,12.90
2021,09,27,08,17,12.90
2021,09,27,08,18,12.90
2021,09,27,08,19,12.90
2021,09,27,08,20,12.80
2021,09,27,08,21,12.80
2021,09,27,08,22,12.80
2021,09,27,08,23,12.80
2021,09,27,08,24,12.80
2021,09,27,08,25,12.80
2021,09,27,08,26,12.70
2021,09,27,08,27,12.60
2021,09,27,08,28,12.50
2021,09,27,08,29,12.50
2021,09,27,08,30,12.50
2021,09,27,08,31,12.50
2021,09,27,08,32,12.50
2021,09,27,08,33,12.60
2021,09,27,08,34,12.60
2021,09,27,08,35,12.60
2021,09,27,08,36,12.60
2021,09,27,08,37,12.60
2021,09,27,08,38,12.60
2021,09,27,08,39,12.60
2021,09,27,08,40,12.50
2021,09,27,08,41,12.50
2021,09,27,08,42,12.50
2021,09,27,08,43,12.40
2021,09,27,08,44,12.40
2021,09,27,08,45,12.40
2021,09,27,08,46,12.40
2021,09,27,08,47,12.40
2021,09,27,08,48,12.40
2021,09,27,08,49,12.40
2021,09,27,08,50,12.40
2021,09,27,08,51,12.40
2021,09,27,08,52,12.40
2021,09,27,08,53,12.30
2021,09,27,08,54,12.30
2021,09,27,08,55,12.30
2021,09,27,08,56,12.30
2021,09,27,08,57,12.30
2021,09,27,08,58,12.20
2021,09,27,08,59,12.20
2021,09,27,09,00,12.10
2021,09,27,09,01,12.10
2021,09,27,09,02,12.10
2021,09,27,09,03,12.00
2021,09,27,09,04,12.00
2021,09,27,09,05,12.00
2021,09,27,09,06,12.00
2021,09,27,09,07,11.90
2021,09,27,09,08,12.00
2021,09,27,09,09,12.00
2021,09,27,09,10,12.00
2021,09,27,09,11,12.00
2021,09,27,09,12,11.90
2021,09,27,09,13,11.90
2021,09,27,09,14,11.90
2021,09,27,09,15,11.90
2021,09,27,09,16,11.80
2021,09,27,09,17,11.80
2021,09,27,09,18,11.80
2021,09,27,09,19,11.80
2021,09,27,09,20,11.70
2021,09,27,09,21,11.70
2021,09,27,09,22,11.70
2021,09,27,09,23,11.70
2021,09,27,09,24,11.60
2021,09,27,09,25,11.60
2021,09,27,09,26,11.60
2021,09,27,09,27,11.60
2021,09,27,09,28,11.60
2021,09,27,09,29,11.60
2021,09,27,09,30,11.60
2021,09,27,09,31,11.60
2021,09,27,09,32,11.60
2021,09,27,09,33,11.50
2021,09,27,09,34,11.40
2021,09,27,09,35,11.40
2021,09,27,09,36,11.40
2021,09,27,09,37,11.40
2021,09,27,09,38,11.40
2021,09,27,09,39,11.40
2021,09,27,09,40,11.40
2021,09,27,09,41,11.40
2021,09,27,09,42,11.40
2021,09,27,09,43,11.40
2021,09,27,09,44,11.30
2021,09,27,09,45,11.30
2021,09,27,09,46,11.40
2021,09,27,09,47,11.50
2021,09,27,09,48,11.50
2021,09,27,09,49,11.60
2021,09,27,09,50,11.70
2021,09,27,09,51,11.80
2021,09,27,09,52,11.90
2021,09,27,09,53,12.00
2021,09,27,09,54,12.00
2021,09,27,09,55,12.10
2021,09,27,09,56,12.20
2021,09,27,09,57,12.20
2021,09,27,09,58,12.20
2021,09,27,09,59,12.20
2021,09,27,10,00,12.20
2021,09,27,10,01,12.30
2021,09,27,10,02,12.30
2021,09,27,10,03,12.30
2021,09,27,10,04,12.40
2021,09,27,10,05,12.40
2021,09,27,10,06,12.50
2021,09,27,10,07,12.60
2021,09,27,10,08,12.70
2021,09,27,10,09,12.80
2021,09,27,10,10,12.90
2021,09,27,10,11,13.00
2021,09,27,10,12,13.10
2021,09,27,10,13,13.20
2021,09,27,10,14,13.20
2021,09,27,10,15,13.30
2021,09,27,10,16,13.40
2021,09,27,10,17,13.50
2021,09,27,10,18,13.50
2021,09,27,10,19,13.60
2021,09,27,10,20,13.60
2021,09,27,10,21,13.70
2021,09,27,10,22,13.70
2021,09,27,10,23,13.80
2021,09,27,10,24,13.80
2021,09,27,10,25,13.80
2021,09,27,10,26,13.80
2021,09,27,10,27,13.80
2021,09,27,10,28,13.80
2021,09,27,10,29,13.80
2021,09,27,10,30,13.90
2021,09,27,10,31,13.90
2021,09,27,10,32,13.90
2021,09,27,10,33,14.00
2021,09,27,10,34,14.00
2021,09,27,10,35,14.00
2021,09,27,10,36,14.00
2021,09,27,10,37,14.10
2021,09,27,10,38,14.10
2021,09,27,10,39,14.20
2021,09,27,10,40,14.20
2021,09,27,10,41,14.20
2021,09,27,10,42,14.20
2021,09,27,10,43,14.30
2021,09,27,10,44,14.40
2021,09,27,10,45,14.50
2021,09,27,10,46,14.60
2021,09,27,10,47,14.70
2021,09,27,10,48,14.70
2021,09,27,10,49,14.70
2021,09,27,10,50,14.70
2021,09,27,10,51,14.70
2021,09,27,10,52,14.60
2021,09,27,10,53,14.60
2021,09,27,10,54,14.50
2021,09,27,10,55,14.40
2021,09,27,10,56,14.40
2021,09,27,10,57,14.40
2021,09,27,10,58,14.30
2021,09,27,10,59,14.30
2021,09,27,11,00,14.20
2021,09,27,11,01,14.20
2021,09,27,11,02,14.20
2021,09,27,11,03,14.10
2021,09,27,11,04,14.10
2021,09,27,11,05,14.10
2021,09,27,11,06,14.10
2021,09,27,11,07,14.10
2021,09,27,11,08,14.10
2021,09,27,11,09,14.10
2021,09,27,11,10,14.10
2021,09,27,11,11,14.10
2021,09,27,11,12,14.10
2021,09,27,11,13,14.10
2021,09,27,11,14,14.10
2021,09,27,11,15,14.10
2021,09,27,11,16,14.20
2021,09,27,11,17,14.10
2021,09,27,11,18,14.10
2021,09,27,11,19,14.10
2021,09,27,11,20,14.10
2021,09,27,11,21,14.10
2021,09,27,11,22,14.10
2021,09,27,11,23,14.20
2021,09,27,11,24,14.20
2021,09,27,11,25,14.20
2021,09,27,11,26,14.30
2021,09,27,11,27,14.30
2021,09,27,11,28,14.30
2021,09,27,11,29,14.40
2021,09,27,11,30,14.40
2021,09,27,11,31,14.40
2021,09,27,11,32,14.50
2021,09,27,11,33,14.50
2021,09,27,11,34,14.60
2021,09,27,11,35,14.60
2021,09,27,11,36,14.60
2021,09,27,11,37,14.60
2021,09,27,11,38,14.60
2021,09,27,11,39,14.60
2021,09,27,11,40,14.70
2021,09,27,11,41,14.70
2021,09,27,11,42,14.70
2021,09,27,11,43,14.70
2021,09,27,11,44,14.70
2021,09,27,11,45,14.70
2021,09,27,11,46,14.70
2021,09,27,11,47,14.60
2021,09,27,11,48,14.60
2021,09,27,11,49,14.60
2021,09,27,11,50,14.70
2021,09,27,11,51,14.70
2021,09,27,11,52,14.70
2021,09,27,11,53,14.70
2021,09,27,11,54,14.70
2021,09,27,11,55,14.70
2021,09,27,11,56,14.70
2021,09,27,11,57,14.70
2021,09,27,11,58,14.70
2021,09,27,11,59,14.70
2021,09,27,12,00,14.70
2021,09,27,12,01,14.70
2021,09,27,12,02,14.70
2021,09,27,12,03,14.70
2021,09,27,12,04,14.70
2021,09,27,12,05,14.70
2021,09,27,12,06,14.70
2021,09,27,12,07,14.70
2021,09,27,12,08,14.70
2021,09,27,12,09,14.70
2021,09,27,12,10,14.60
2021,09,27,12,11,14.60
2021,09,27,12,12,14.60
2021,09,27,12,13,14.70
2021,09,27,12,14,14.70
2021,09,27,12,15,14.70
2021,09,27,12,16,14.70
2021,09,27,12,17,14.70
2021,09,27,12,18,14.70
2021,09,27,12,19,14.70
2021,09,27,12,20,14.80
2021,09,27,12,21,14.80
2021,09,27,12,22,14.80
2021,09,27,12,23,14.80
2021,09,27,12,24,14.80
2021,09,27,12,25,14.80
2021,09,27,12,26,14.80
2021,09,27,12,27,14.80
2021,09,27,12,28,14.80
2021,09,27,12,29,14.70
2021,09,27,12,30,14.70
2021,09,27,12,31,14.70
2021,09,27,12,32,14.70
2021,09,27,12,33,14.70
2021,09,27,12,34,14.70
2021,09,27,12,35,14.60
2021,09,27,12,36,14.60
2021,09,27,12,37,14.60
2021,09,27,12,38,14.60
2021,09,27,12,39,14.60
2021,09,27,12,40,14.60
2021,09,27,12,41,14.60
2021,09,27,12,42,14.50
2021,09,27,12,43,14.50
2021,09,27,12,44,14.50
2021,09,27,12,45,14.50
2021,09,27,12,46,14.50
2021,09,27,12,47,14.50
2021,09,27,12,48,14.50
2021,09,27,12,49,14.60
2021,09,27,12,50,14.60
2021,09,27,12,51,14.60
2021,09,27,12,52,14.70
2021,09,27,12,53,14.70
2021,09,27,12,54,14.70
2021,09,27,12,55,14.70
2021,09,27,12,56,14.70
2021,09,27,12,57,14.70
2021,09,27,12,58,14.80
2021,09,27,12,59,14.80
2021,09,27,13,00,14.80
2021,09,27,13,01,14.80
2021,09,27,13,02,14.80
2021,09,27,13,03,14.90
2021,09,27,13,04,14.90
2021,09,27,13,05,14.90
2021,09,27,13,06,14.90
2021,09,27,13,07,15.00
2021,09,27,13,08,15.00
2021,09,27,13,09,15.00
2021,09,27,13,10,15.00
2021,09,27,13,11,15.10
2021,09,27,13,12,15.10
2021,09,27,13,13,15.10
2021,09,27,13,14,15.00
2021,09,27,13,15,15.00
2021,09,27,13,16,14.90
2021,09,27,13,17,14.90
2021,09,27,13,18,14.80
2021,09,27,13,19,14.80
2021,09,27,13,20,14.80
2021,09,27,13,21,14.80
2021,09,27,13,22,14.80
2021,09,27,13,23,14.80
2021,09,27,13,24,14.80
2021,09,27,13,25,14.80
2021,09,27,13,26,14.90
2021,09,27,13,27,14.90
2021,09,27,13,28,14.90
2021,09,27,13,29,14.90
2021,09,27,13,30,15.00
2021,09,27,13,31,15.00
2021,09,27,13,32,15.00
2021,09,27,13,33,15.10
2021,09,27,13,34,15.10
2021,09,27,13,35,15.10
2021,09,27,13,36,15.10
2021,09,27,13,37,15.10
2021,09,27,13,38,15.10
2021,09,27,13,39,15.20
2021,09,27,13,40,15.30
2021,09,27,13,41,15.30
2021,09,27,13,42,15.30
2021,09,27,13,43,15.30
2021,09,27,13,44,15.30
2021,09,27,13,45,15.30
2021,09,27,13,46,15.30
2021,09,27,13,47,15.30
2021,09,27,13,48,15.30
2021,09,27,13,49,15.20
2021,09,27,13,50,15.20
2021,09,27,13,51,15.20
2021,09,27,13,52,15.20
2021,09,27,13,53,15.20
2021,09,27,13,54,15.20
2021,09,27,13,55,15.10
2021,09,27,13,56,15.10
2021,09,27,13,57,15.10
2021,09,27,13,58,15.10
2021,09,27,13,59,15.20
2021,09,27,14,00,15.20
2021,09,27,14,01,15.20
2021,09,27,14,02,15.20
2021,09,27,14,03,15.20
2021,09,27,14,04,15.20
2021,09,27,14,05,15.20
2021,09,27,14,06,15.20
2021,09,27,14,07,15.20
2021,09,27,14,08,15.20
2021,09,27,14,09,15.20
2021,09,27,14,10,15.30
2021,09,27,14,11,15.30
2021,09,27,14,12,15.30
2021,09,27,14,13,15.30
2021,09,27,14,14,15.30
2021,09,27,14,15,15.30
2021,09,27,14,16,15.30
2021,09,27,14,17,15.30
2021,09,27,14,18,15.30
2021,09,27,14,19,15.30
2021,09,27,14,20,15.30
2021,09,27,14,21,15.20
2021,09,27,14,22,15.20
2021,09,27,14,23,15.20
2021,09,27,14,24,15.10
2021,09,27,14,25,15.00
2021,09,27,14,26,15.00
2021,09,27,14,27,14.90
2021,09,27,14,28,14.90
2021,09,27,14,29,14.90
2021,09,27,14,30,14.80
2021,09,27,14,31,14.80
2021,09,27,14,32,14.80
2021,09,27,14,33,14.70
2021,09,27,14,34,14.70
2021,09,27,14,35,14.70
2021,09,27,14,36,14.80
2021,09,27,14,37,14.70
2021,09,27,14,38,14.70
2021,09,27,14,39,14.70
2021,09,27,14,40,14.70
2021,09,27,14,41,14.70
2021,09,27,14,42,14.70
2021,09,27,14,43,14.70
2021,09,27,14,44,14.60
2021,09,27,14,45,14.60
2021,09,27,14,46,14.50
2021,09,27,14,47,14.40
2021,09,27,14,48,14.30
2021,09,27,14,49,14.30
2021,09,27,14,50,14.20
2021,09,27,14,51,14.10
2021,09,27,14,52,14.10
2021,09,27,14,53,14.00
2021,09,27,14,54,13.90
2021,09,27,14,55,13.90
2021,09,27,14,56,13.80
2021,09,27,14,57,13.80
2021,09,27,14,58,13.70
2021,09,27,14,59,13.70
2021,09,27,15,00,13.60
2021,09,27,15,01,13.60
2021,09,27,15,02,13.60
2021,09,27,15,03,13.60
2021,09,27,15,04,13.60
2021,09,27,15,05,13.70
2021,09,27,15,06,13.70
2021,09,27,15,07,13.70
2021,09,27,15,08,13.80
2021,09,27,15,09,13.80
2021,09,27,15,10,13.90
2021,09,27,15,11,13.90
2021,09,27,15,12,14.00
2021,09,27,15,13,14.00
2021,09,27,15,14,14.10
2021,09,27,15,15,14.10
2021,09,27,15,16,14.20
2021,09,27,15,17,14.30
2021,09,27,15,18,14.40
2021,09,27,15,19,14.40
2021,09,27,15,20,14.50
2021,09,27,15,21,14.50
2021,09,27,15,22,14.60
2021,09,27,15,23,14.60
2021,09,27,15,24,14.60
2021,09,27,15,25,14.60
2021,09,27,15,26,14.60
2021,09,27,15,27,14.60
2021,09,27,15,28,14.50
2021,09,27,15,29,14.50
2021,09,27,15,30,14.50
2021,09,27,15,31,14.60
2021,09,27,15,32,14.60
2021,09,27,15,33,14.60
2021,09,27,15,34,14.60
2021,09,27,15,35,14.50
2021,09,27,15,36,14.50
2021,09,27,15,37,14.50
2021,09,27,15,38,14.50
2021,09,27,15,39,14.60
2021,09,27,15,40,14.60
2021,09,27,15,41,14.60
2021,09,27,15,42,14.60
2021,09,27,15,43,14.60
2021,09,27,15,44,14.70
2021,09,27,15,45,14.70
2021,09,27,15,46,14.70
2021,09,27,15,47,14.70
2021,09,27,15,48,14.70
2021,09,27,15,49,14.80
2021,09,27,15,50,14.80
2021,09,27,15,51,14.80
2021,09,27,15,52,14.80
2021,09,27,15,53,14.80
2021,09,27,15,54,14.80
2021,09,27,15,55,14.80
2021,09,27,15,56,14.80
2021,09,27,15,57,14.90
2021,09,27,15,58,14.90
2021,09,27,15,59,15.00
2021,09,27,16,00,15.10
2021,09,27,16,01,15.10
2021,09,27,16,02,15.20
2021,09,27,16,03,15.20
2021,09,27,16,04,15.20
2021,09,27,16,05,15.30
2021,09,27,16,06,15.30
2021,09,27,16,07,15.20
2021,09,27,16,08,15.20
2021,09,27,16,09,15.20
2021,09,27,16,10,15.20
2021,09,27,16,11,15.20
2021,09,27,16,12,15.10
2021,09,27,16,13,15.00
2021,09,27,16,14,15.00
2021,09,27,16,15,15.00
2021,09,27,16,16,14.90
2021,09,27,16,17,14.80
2021,09,27,16,18,14.80
2021,09,27,16,19,14.80
2021,09,27,16,20,14.80
2021,09,27,16,21,14.80
2021,09,27,16,22,14.70
2021,09,27,16,23,14.70
2021,09,27,16,24,14.70
2021,09,27,16,25,14.70
2021,09,27,16,26,14.70
2021,09,27,16,27,14.70
2021,09,27,16,28,14.70
2021,09,27,16,29,14.80
2021,09,27,16,30,14.80
2021,09,27,16,31,14.80
2021,09,27,16,32,14.90
2021,09,27,16,33,14.90
2021,09,27,16,34,14.90
2021,09,27,16,35,15.00
2021,09,27,16,36,15.00
2021,09,27,16,37,15.10
2021,09,27,16,38,15.20
2021,09,27,16,39,15.20
2021,09,27,16,40,15.30
2021,09,27,16,41,15.40
2021,09,27,16,42,15.50
2021,09,27,16,43,15.50
2021,09,27,16,44,15.60
2021,09,27,16,45,15.60
2021,09,27,16,46,15.70
2021,09,27,16,47,15.60
2021,09,27,16,48,15.60
2021,09,27,16,49,15.50
2021,09,27,16,50,15.50
2021,09,27,16,51,15.40
2021,09,27,16,52,15.40
2021,09,27,16,53,15.30
2021,09,27,16,54,15.30
2021,09,27,16,55,15.20
2021,09,27,16,56,15.10
2021,09,27,16,57,15.00
2021,09,27,16,58,15.00
2021,09,27,16,59,14.90
2021,09,27,17,00,14.90
2021,09,27,17,01,14.80
2021,09,27,17,02,14.80
2021,09,27,17,03,14.70
2021,09,27,17,04,14.70
2021,09,27,17,05,14.70
2021,09,27,17,06,14.70
2021,09,27,17,07,14.70
2021,09,27,17,08,14.60
2021,09,27,17,09,14.60
2021,09,27,17,10,14.60
2021,09,27,17,11,14.60
2021,09,27,17,12,14.60
2021,09,27,17,13,14.50
2021,09,27,17,14,14.50
2021,09,27,17,15,14.50
2021,09,27,17,16,14.50
2021,09,27,17,17,14.50
2021,09,27,17,18,14.50
2021,09,27,17,19,14.50